Theta_e
327 328 328 328 328 328 328 326 327 327 327 326 326 325 325 325 325 322 321 320 320 320 319 320 320 319 316 316 317 316 316 315 313 311 312 310 309 307 305 305 305 304
327 327 327 328 328 328 327 328 327 327 326 326 327 327 326 324 321 320 319 319 318 317 316 317 317 315 314 313 313 312 310 308 305 306 307 306 304 304 303 303 302 301
326 326 326 326 326 327 327 328 327 327 326 326 327 326 322 320 317 317 317 317 316 317 316 315 311 311 312 312 312 309 309 307 304 304 305 302 301 302 302 301 299 299
324 325 326 326 326 326 327 325 325 325 326 324 323 322 318 315 315 314 315 311 315 313 313 311 308 308 308 308 310 310 308 305 303 303 303 301 300 298 298 298 297 297
322 323 324 325 325 326 326 324 321 322 322 321 320 316 314 312 312 311 310 310 312 310 307 305 304 303 304 305 306 307 305 303 301 300 297 295 296 296 296 296 295 294
321 322 322 322 323 323 323 322 320 320 319 317 316 313 312 311 310 309 308 308 307 304 301 300 300 301 302 302 304 303 297 296 295 296 295 293 293 294 295 294 293 292
318 319 320 320 320 321 321 320 320 319 318 317 313 310 309 308 307 307 308 307 305 300 296 297 298 298 300 301 300 299 297 295 294 294 293 293 292 292 293 293 292 291
316 317 318 319 318 318 317 317 318 317 316 311 309 309 307 307 306 304 303 302 301 299 298 298 296 297 297 298 297 296 294 294 293 293 292 291 291 290 291 292 291 289
314 314 314 314 315 314 314 314 314 312 310 308 306 303 303 304 303 302 300 299 297 296 298 298 296 295 295 295 294 293 292 292 293 292 291 291 290 290 290 290 290 289
310 311 311 311 311 309 310 308 305 303 302 304 303 301 301 300 301 299 298 297 296 296 297 297 294 293 293 293 292 292 291 291 291 292 291 291 290 289 289 289 288 287
308 307 308 308 307 304 304 302 301 301 300 300 299 299 300 299 298 298 298 298 298 299 298 295 293 292 292 292 292 292 291 291 291 291 291 290 289 289 287 288 288 287
304 303 304 304 303 302 300 300 299 299 299 298 299 299 295 295 297 296 296 298 299 299 297 294 292 292 292 291 291 291 290 290 290 290 289 289 288 288 288 288 287 287
300 301 302 302 300 300 297 297 297 296 296 296 296 296 295 294 294 295 295 296 296 296 296 294 292 291 291 290 290 289 289 289 288 288 288 287 287 287 287 287 286 286
299 299 299 299 297 295 295 294 294 294 294 294 294 294 294 294 294 295 294 296 298 298 294 292 291 290 290 289 289 289 288 288 287 287 286 286 286 286 286 285 286 286
295 295 295 294 293 293 293 293 293 293 292 292 292 293 294 293 293 293 292 292 292 291 290 290 290 290 289 288 288 288 288 287 287 286 286 285 285 285 285 285 285 285
294 293 293 293 293 293 293 292 292 291 291 291 291 291 291 292 293 292 292 292 290 288 289 289 289 289 287 287 288 288 288 287 287 286 286 285 284 284 284 284 285 285
293 292 292 292 291 292 292 291 291 291 291 291 290 290 289 288 289 289 289 289 289 288 288 288 288 287 286 288 289 288 288 287 286 286 286 285 284 284 283 284 284 284
293 292 292 292 291 291 290 290 290 289 290 290 289 288 287 287 288 288 287 287 287 288 287 287 287 286 288 288 288 288 287 287 287 286 285 285 285 284 284 283 283 283
293 292 292 291 292 291 290 289 288 288 288 287 287 287 286 286 287 287 286 287 287 287 287 287 287 287 288 288 288 288 287 287 287 286 285 285 285 284 284 283 283 282
294 293 292 291 290 289 288 287 288 288 288 287 287 286 286 286 286 286 286 286 287 288 287 287 287 287 288 288 287 287 287 287 287 286 286 285 284 284 284 283 282 282
292 292 293 292 290 288 288 287 288 287 286 286 286 286 286 285 286 285 286 287 287 287 288 288 288 288 288 288 287 287 287 286 286 286 285 284 284 283 283 283 282 282
291 291 291 291 290 289 288 287 287 287 286 286 286 286 286 286 286 286 286 286 287 288 287 286 287 288 288 287 287 287 286 285 285 284 284 283 282 282 282 282 282 282
294 292 290 289 288 287 287 287 287 286 286 285 285 285 285 285 285 286 286 286 286 287 287 287 287 287 287 287 287 287 285 284 284 283 283 282 282 281 281 281 281 281
294 293 290 288 287 287 287 287 286 286 285 285 285 285 284 285 285 285 286 286 286 286 287 286 286 286 287 287 287 286 284 284 283 283 282 281 281 281 281 281 280 280
293 291 289 288 287 287 287 286 285 285 285 285 285 285 285 285 285 285 285 286 286 286 285 286 286 285 287 287 286 286 284 284 283 283 281 281 280 280 280 280 279 280
290 288 288 288 287 287 287 286 285 285 284 284 284 284 284 284 284 285 284 285 285 285 285 286 285 285 286 287 286 285 284 283 283 282 281 280 280 280 279 279 279 280
Wind_Speed
15 14 15 14 15 13 13 13 11 12 11 12 12 11 11 10 9 8 8 7 7 7 8 9 9 10 8 9 9 6 6 8 8 6 7 5 5 7 7 8 8 6
17 15 11 11 11 8 11 12 13 13 11 12 12 12 11 7 8 9 8 9 8 7 9 10 10 10 9 6 6 7 7 6 6 4 7 7 6 6 7 9 7 5
14 12 12 11 11 13 13 11 12 12 11 12 10 8 7 8 9 8 8 9 10 9 10 10 7 6 8 8 7 5 6 7 7 6 7 7 7 7 9 8 5 6
15 12 9 10 11 12 11 10 9 9 9 7 9 8 8 8 9 9 9 10 10 10 10 9 7 8 7 8 9 7 7 6 6 8 8 7 7 7 7 5 6 5
12 9 9 10 11 11 9 9 8 8 8 8 8 7 8 8 8 8 9 9 9 9 8 7 7 7 8 7 8 8 9 8 8 7 7 7 6 6 5 6 6 6
8 9 8 8 8 10 10 10 9 10 9 8 10 8 9 10 9 9 9 10 9 7 8 7 6 7 8 9 8 7 6 6 6 7 8 7 6 5 4 5 7 6
8 8 8 7 8 9 9 9 10 9 9 9 8 9 9 9 9 9 9 11 12 11 12 8 8 8 8 8 6 7 6 7 8 7 8 6 7 6 5 6 6 7
8 7 8 8 8 8 9 9 9 9 9 7 9 9 9 10 11 9 7 8 11 10 10 10 7 7 7 7 7 7 7 5 7 8 8 8 7 8 7 5 6 7
8 6 5 6 8 7 8 8 7 6 6 8 8 7 5 7 7 10 12 9 10 11 10 9 7 7 6 7 7 8 9 7 6 8 9 9 9 8 8 7 7 7
8 5 6 7 7 6 6 4 4 4 4 5 6 7 8 7 8 8 10 11 11 10 9 8 6 7 7 7 9 9 9 9 8 7 7 8 8 8 8 7 7 8
6 5 6 6 6 4 5 5 5 6 6 7 8 8 9 10 10 8 10 12 11 11 10 7 8 9 9 8 7 6 8 8 8 7 7 7 7 7 7 7 7 7
5 5 6 6 6 5 6 7 7 7 8 8 9 10 8 6 8 10 7 9 11 11 11 11 9 9 9 9 8 7 7 7 7 7 7 7 7 6 6 5 6 7
5 6 6 5 5 5 4 5 5 5 6 7 5 7 9 8 6 7 7 7 9 10 11 12 9 9 8 8 8 7 8 8 8 8 8 6 6 6 6 6 6 6
6 4 4 4 3 3 4 3 3 4 4 4 6 7 8 9 11 10 8 7 9 11 10 9 9 8 8 8 7 7 8 8 8 8 8 7 7 6 6 6 6 6
3 2 2 3 3 3 4 4 4 4 5 5 6 6 6 7 7 7 9 8 6 7 9 7 7 7 6 8 9 8 8 9 9 9 9 9 8 7 6 6 6 5
4 4 3 3 4 5 5 5 5 6 6 6 6 5 6 7 7 6 7 10 11 9 7 6 5 4 9 14 12 10 9 7 7 8 8 9 9 8 7 6 6 5
4 4 5 4 4 5 4 5 6 6 6 6 7 8 7 7 7 8 9 9 10 11 10 6 6 7 14 12 12 14 11 9 9 9 8 8 8 8 9 8 7 6
4 4 5 5 5 6 6 5 5 5 5 6 6 6 5 5 7 8 8 8 6 7 8 8 7 11 15 15 14 13 10 9 8 8 8 7 8 8 7 8 8 7
6 6 5 5 6 6 6 6 5 6 5 5 6 5 6 8 10 9 9 5 8 9 8 8 7 13 15 16 15 14 12 10 8 8 8 8 8 8 8 8 8 7
7 7 7 6 6 5 5 5 5 6 5 4 4 5 7 7 7 9 8 8 8 9 8 8 8 14 16 16 16 15 13 9 8 8 7 7 8 7 7 8 8 8
6 7 8 8 8 6 5 5 5 4 5 4 5 6 7 7 7 5 5 6 6 6 8 8 7 16 16 17 17 17 14 8 7 7 6 7 6 6 7 7 8 7
8 7 6 7 6 6 7 7 7 6 7 5 5 3 2 2 2 3 6 5 4 6 6 7 9 16 16 17 17 16 15 6 7 8 7 7 6 6 6 6 6 7
9 9 8 7 5 6 7 7 7 6 3 4 4 3 4 4 5 5 5 6 8 6 7 8 10 14 16 17 17 18 12 6 7 6 6 7 7 7 6 6 6 7
8 8 6 6 6 7 7 6 3 2 4 5 6 7 6 5 5 5 4 4 6 6 7 8 8 13 16 17 18 19 10 8 7 7 7 6 6 6 5 6 6 9
8 6 6 7 8 7 6 7 6 6 4 4 2 3 4 5 5 6 6 5 5 5 10 8 8 12 17 18 18 18 11 6 7 7 7 6 6 6 5 5 6 8
5 6 6 7 8 7 6 5 3 4 5 4 5 4 6 5 6 6 6 6 6 7 6 7 8 10 14 19 18 17 14 7 7 8 8 8 7 7 7 6 6 7
Wind_Direction
221 220 223 222 225 222 219 213 210 212 208 205 204 203 204 205 194 188 181 180 185 176 171 172 172 167 158 157 165 149 150 157 160 163 167 130 135 154 152 158 177 179
223 223 222 222 223 210 217 217 214 210 205 204 207 206 205 184 184 177 171 175 173 173 170 171 172 166 161 152 150 140 145 154 148 148 150 143 142 145 149 166 172 158
226 224 220 216 220 219 214 213 211 211 209 205 205 199 186 183 172 179 169 169 172 175 174 170 154 155 159 161 161 139 148 156 154 155 148 143 147 165 172 170 161 164
226 224 221 219 218 219 215 208 206 205 206 193 195 191 179 175 178 172 167 164 171 170 168 164 149 153 155 156 162 167 162 150 148 153 156 157 165 160 159 157 152 155
224 221 219 220 218 220 217 209 200 199 198 195 183 173 168 171 172 171 163 165 165 163 158 148 147 150 150 152 159 162 164 159 156 153 148 151 151 154 151 150 147 144
222 219 214 212 210 211 210 207 197 197 197 192 187 174 179 176 172 174 168 160 158 156 142 138 143 154 157 150 163 166 144 145 152 151 145 144 145 144 142 143 140 140
220 213 211 209 210 210 210 206 206 198 197 193 171 184 173 176 174 172 174 166 160 152 145 148 158 162 156 151 160 154 149 140 151 154 141 135 135 136 133 140 143 139
226 215 212 209 208 207 210 206 203 198 191 172 182 182 175 176 170 162 159 160 152 155 156 157 162 155 144 150 155 146 139 143 152 148 138 133 137 141 151 142 139 135
233 221 207 215 214 214 214 209 206 192 173 173 171 161 167 167 173 167 157 155 150 159 163 165 158 142 145 147 145 145 151 157 154 147 143 145 148 149 149 145 139 134
229 218 214 210 214 211 209 194 165 154 152 160 155 154 161 163 163 168 156 157 159 160 166 162 140 132 139 145 151 158 155 152 150 143 140 146 145 145 147 150 144 133
215 189 209 212 212 196 190 164 164 156 159 159 158 172 179 169 167 176 174 160 161 162 160 157 154 145 149 155 157 154 147 143 143 138 136 134 134 137 144 140 142 142
211 206 211 208 197 189 181 177 170 172 173 175 174 169 164 173 171 164 173 169 160 163 161 163 156 153 154 153 151 144 135 130 127 126 124 124 128 131 138 133 137 140
185 200 204 197 194 187 174 170 176 173 170 170 169 161 161 160 162 163 166 168 161 157 163 166 146 145 145 140 139 139 138 132 125 123 125 123 122 126 125 127 131 139
213 211 200 191 157 140 148 150 148 153 155 142 149 157 167 170 168 169 165 167 171 167 161 156 144 137 138 138 135 135 134 133 132 132 131 125 127 129 130 129 133 140
155 158 131 107 134 138 145 150 152 148 141 146 157 158 163 169 162 159 148 147 140 141 150 141 139 148 144 145 140 139 136 137 137 137 137 136 135 135 135 137 139 139
163 148 140 133 143 156 160 155 153 154 155 157 159 155 148 156 162 154 153 158 152 142 136 135 138 116 151 151 152 147 145 138 134 139 140 142 143 143 143 145 147 141
159 157 149 160 157 143 147 153 154 156 158 154 153 154 151 147 146 146 150 157 155 154 149 144 140 154 157 153 147 149 146 143 146 146 145 146 150 152 152 152 150 140
164 154 156 163 161 163 161 159 148 154 160 157 153 149 129 124 146 153 143 153 141 139 142 151 152 159 159 156 153 150 148 145 144 144 149 151 157 156 153 155 153 150
165 168 170 166 181 170 158 152 158 155 154 154 160 152 144 155 161 156 162 146 152 154 152 151 149 160 157 156 157 154 149 147 145 147 147 154 158 158 157 158 155 153
174 173 176 177 159 154 156 160 167 173 170 165 146 150 162 160 166 165 161 162 165 155 148 150 151 163 158 157 158 157 154 148 142 143 143 152 158 159 159 161 161 160
176 179 179 173 172 168 167 175 179 169 165 164 164 168 164 162 162 159 161 160 155 150 147 153 154 159 158 158 160 161 154 137 136 132 140 150 153 156 159 160 163 163
179 183 181 176 174 174 176 181 180 177 174 161 160 160 138 118 138 149 161 158 152 146 141 146 152 161 158 159 158 156 148 140 143 147 149 151 151 157 158 160 163 163
193 191 184 177 177 179 186 185 181 174 157 160 150 156 154 166 162 161 163 162 162 159 152 150 155 166 162 160 158 155 153 150 147 147 148 152 157 158 159 162 167 168
195 183 181 181 178 191 191 189 170 161 163 171 167 161 165 165 158 156 160 166 166 167 163 148 159 167 165 165 166 168 163 151 155 148 147 152 152 161 163 166 169 172
192 188 183 180 186 191 185 181 178 176 160 164 154 142 150 152 158 162 163 170 180 168 165 159 155 169 172 172 172 172 163 152 150 146 150 160 159 163 166 163 166 181
186 185 188 182 188 184 178 179 148 147 156 160 164 167 162 167 169 169 160 167 165 178 175 174 162 170 178 177 177 175 170 155 155 153 164 162 167 166 164 174 177 178